This is the latest recevied weather packets stored in our database for station/object N5XJB. If no packets are shown the sender has not sent any weather packets the latest 10 day(s).
| Time | Temp. | Humidity | Pressure | Rain* | Wind** | Luminosity | Snow |
|---|---|---|---|---|---|---|---|
| 1777847865 | 27.78° C | 34% | 1018.9 hPa | 0 mm | - | 334 W/m² | - |
| 1777847562 | 27.78° C | 34% | 1019.3 hPa | 0 mm | - | 341 W/m² | - |
| 1777847258 | 27.22° C | 35% | 1019.3 hPa | 0 mm | - | 419 W/m² | - |
| 1777846956 | 27.22° C | 35% | 1019.6 hPa | 0 mm | - | 228 W/m² | - |
| 1777846654 | 27.22° C | 36% | 1019.6 hPa | 0 mm | - | 279 W/m² | - |
| 1777846352 | 28.33° C | 34% | 1019.6 hPa | 0 mm | - | 403 W/m² | - |
| 1777846048 | 28.89° C | 32% | 1019.6 hPa | 0 mm | - | 417 W/m² | - |
| 1777845745 | 28.33° C | 35% | 1019.6 hPa | 0 mm | - | 448 W/m² | - |
| 1777845442 | 27.78° C | 34% | 1019.6 hPa | 0 mm | - | 499 W/m² | - |
| 1777845139 | 27.78° C | 35% | 1019.6 hPa | 0 mm | - | 528 W/m² | - |
| 1777844837 | 28.33° C | 35% | 1019.6 hPa | 0 mm | - | 405 W/m² | - |
| 1777844533 | 27.78° C | 35% | 1019.6 hPa | 0 mm | - | 562 W/m² | - |
| 1777844231 | 28.33° C | 34% | 1019.6 hPa | 0 mm | - | 518 W/m² | - |
| 1777843928 | 27.78° C | 36% | 1019.9 hPa | 0 mm | - | 575 W/m² | - |
| 1777843625 | 29.44° C | 31% | 1019.9 hPa | 0 mm | - | 391 W/m² | - |
| 1777843323 | 28.89° C | 33% | 1020.3 hPa | 0 mm | - | 515 W/m² | - |
| 1777843020 | 28.89° C | 33% | 1020.3 hPa | 0 mm | - | 608 W/m² | - |
| 1777842716 | 28.89° C | 33% | 1020.3 hPa | 0 mm | - | 643 W/m² | - |
| 1777842412 | 28.89° C | 33% | 1020.3 hPa | 0 mm | - | 660 W/m² | - |
| 1777842109 | 28.89° C | 33% | 1020.3 hPa | 0 mm | - | 672 W/m² | - |
| 1777841804 | 28.89° C | 31% | 1020.3 hPa | 0 mm | - | 689 W/m² | - |
| 1777841501 | 28.89° C | 34% | 1020.3 hPa | 0 mm | - | 709 W/m² | - |
| 1777841198 | 28.89° C | 32% | 1020.3 hPa | 0 mm | - | 712 W/m² | - |
| 1777840895 | 28.89° C | 33% | 1020.6 hPa | 0 mm | - | 710 W/m² | - |
| 1777840592 | 28.33° C | 36% | 1020.6 hPa | 0 mm | - | 728 W/m² | - |
* Rain latest hour (hover to see other rain measurements)
** Current wind speed in m/s (hover to see current wind gust speed)